{"data":{"norad_id":68322,"epoch":"2026-05-25T04:00:03.998880Z","epoch_age_seconds":50713,"freshness":"FRESH","line1":"1 68322U 26059B   26145.16671295 -.00012206  00000+0 -35076-3 0  9994","line2":"2 68322  53.1595 348.9443 0000938 104.6866 197.4240 15.34394597  5863","mean_motion":15.34394597,"eccentricity":9.38e-5,"inclination_deg":53.1595,"raan_deg":348.9443,"arg_perigee_deg":104.6866,"mean_anomaly_deg":197.424,"bstar":-0.00035076,"rev_number":586,"period_min":93.84808854355,"perigee_km":462.077626788,"apogee_km":463.36097142971,"semimajor_km":6840.8562991089,"source":"CELESTRAK","updated_at":"2026-05-25T13:38:21.921336Z"}}